カタログに戻る

SL-8 DEB *

運用中LEO
NORAD 3965·DEBRIS·🇷🇺 Russia

打ち上げ Mar 15, 1965 から Baikonur Cosmodrome

Loading…

次のパス (今後24時間)

TLE

最新Source: Space-Track

元期: Sep 14, 2026, 04:05 UTC

1 03965U 65020EY  26257.17014900  .00000277  00000-0  28504-2 0  9997
2 03965  56.2964 176.3289 0270605  41.6657  99.2251 12.27698516760291

AllMySatでSL-8 DEB *をリアルタイム追跡

Download on the App Store